DECAYED

STARLINK-1850, 47138 (Decayed)

Orbit data source: Space-Track

STARLINK-1850, 47138 was a payload satellite owned by SpaceX/Seattle (US) in LEO that was launched on Wed, 25 Nov 2020 UTC via an FALCON 9 launch vehicle from the Air Force Eastern Test Range (AFETR). Payload-class satellites include a variety of spacecraft equipped with specific instruments for various scientific and technological missions. These include communications satellites like Starlink; space stations such as the ISS; scientific satellites like the Hubble; Earth observation satellites from companies like Planet Labs, Umbra, and HawkEye 360; GPS; miniature CubeSats for education and research; and military/defense satellites.

Not visible in the next 10 days
Identifier
47138, 2020-088S
Orbit
Decayed
Country
Flag of USUS
Related business
Manufacturer
SpaceX/Seattle
Mission
Decayed Commercial Communications
Bus & Motor
STARLINK, Unknown motor
Mass
260 kg wet, ~248 kg dry
Launch date (UTC)
2020-11-25 (6 years ago)
Launch vehicle
FALCON 9
Launch site
Air Force Eastern Test Range (AFETR)
Object type
Payload
Rocket body
Debris
Shape & HBR
Box + 1 Pan, 10.1 m
Radar Cross Section
13.562 m², Large (>1 m²)

Expand to show TLE details & history
Last TLE update: 1 year ago

TLE from 1 year ago
0 STARLINK-1850
1 47138U 20088S   25077.96458149  .17668899  12409-4  82420-3 0  9991
2 47138  53.0230  47.1231 0004138 234.4438 232.2592 16.43141014239240
Epoch: 2025-03-18T23:08Z
TLE epoch observation values (Epoch: 2025-03-18T23:08:59.840Z)
Latitude
50.09141°
Longitude
-0.3981°
Altitude
164.894 km
Speed
7.813 km/s
True Right ascension
10h 54m 26s
True Declination
49° 54' 24"
Sunlit
Object was in full shadow at epoch
Visualization orbit readout
Latitude
Unknown
Longitude
Unknown
Altitude
Unknown
Speed
Unknown
Apparent Right ascension
Unknown
Apparent Declination
Unknown
Sunlit
N/A
Visualization observer readout
Local Sidereal Time
21:28:46
Azimuth
Unknown
Elevation
Unknown
Doppler factor
Unknown
Orbital elements
Apogee altitude
160.457 km
Perigee altitude
155.047 km
Semi-major axis
6,535.889 km
Eccentricity
0.00041
Inclination
53.023°
RAAN
47.1231°
Arg. of periapsis
234.4438°
True anomaly
232.22171°
Mean anomaly
232.2592°
Eccentric anomaly
232.24046°
Mean motion
4.10758 °/min
Orbital period
87.64 mins
BSTAR
0.0008242
Loading maneuver chart data...
Computing Atmospheric mass density...

Documentation

Showing up to 5 results
|